SCP
0 0 0 0 0 0 0 0 0 0 0 0 0 0 0 0 0 0 0 0 0 0 0 0 0 0 0 2 1 1 1 0 0 0 0 0 0 0 0 1 0 0 0 0
0 0 0 0 0 0 0 0 0 0 0 0 0 0 0 0 0 0 0 0 0 0 0 0 0 0 0 0 2 1 1 1 1 1 1 0 0 0 0 0 1 1 0 0
0 0 0 0 0 0 0 0 0 0 0 0 0 0 0 0 0 0 0 0 0 0 0 0 0 0 0 0 0 2 2 1 1 1 1 1 1 1 1 1 1 1 1 1
0 0 0 0 0 0 0 0 0 0 0 0 0 0 0 0 0 0 0 0 0 0 0 0 0 0 0 0 0 0 0 2 1 1 1 2 1 1 1 1 1 1 1 1
0 0 0 0 0 0 0 0 0 0 0 0 0 0 0 0 0 0 0 0 0 0 0 0 0 0 0 0 0 0 0 0 0 1 2 1 1 1 1 1 1 1 1 1
0 0 0 0 0 0 0 0 0 0 0 0 0 0 0 0 0 0 0 0 0 0 0 0 0 0 0 0 0 0 0 0 0 0 0 1 2 2 1 1 1 1 1 1
0 0 0 0 0 0 0 0 0 0 0 0 0 0 0 0 0 0 0 0 0 0 0 0 0 0 0 0 0 0 0 0 0 0 0 0 1 0 1 1 2 1 1 1
0 0 0 0 0 0 0 0 0 0 0 0 0 0 0 0 0 0 0 0 0 0 0 0 0 0 0 0 0 0 0 0 0 0 0 0 1 1 1 1 1 1 1 1
0 0 0 0 0 0 0 0 0 0 0 0 0 0 0 0 0 0 0 0 0 0 0 0 0 0 0 0 0 0 0 0 0 0 0 0 0 0 1 1 2 2 1 1
0 0 0 0 0 0 0 0 0 0 0 0 0 0 0 0 0 0 0 0 0 0 0 0 0 0 0 0 0 0 0 0 0 0 0 0 0 0 0 0 0 0 3 1
0 0 0 0 0 0 0 0 0 0 0 0 0 0 0 0 0 0 0 0 0 0 0 0 0 0 0 0 0 0 0 0 0 0 0 0 0 0 0 0 0 0 0 2
0 0 0 0 0 0 0 0 0 0 0 0 0 0 0 0 0 0 0 0 0 0 0 0 0 0 0 0 0 0 0 0 0 0 0 0 0 0 0 -0 0 0 0 0
0 0 0 0 0 0 0 0 0 0 0 0 0 0 0 0 0 0 0 0 0 0 0 0 0 0 0 0 0 0 0 0 0 0 0 0 0 0 0 0 -0 0 0 0
0 0 0 0 0 0 0 0 0 0 0 0 0 0 0 0 0 0 0 0 0 0 0 0 0 0 0 0 0 0 0 0 0 0 0 0 0 0 0 0 0 0 0 0
0 0 0 0 0 0 0 0 0 0 0 0 0 0 0 0 0 0 0 0 0 0 0 0 0 0 0 0 0 0 0 0 0 0 0 0 0 0 0 0 0 0 0 0
0 0 0 0 0 0 0 0 0 0 0 0 0 0 0 0 0 0 0 0 0 0 0 0 0 0 0 0 0 0 0 0 0 0 0 0 0 0 -0 0 0 0 0 0
0 0 0 0 0 0 0 0 0 0 0 0 0 0 0 0 0 0 0 0 0 0 0 0 0 0 0 0 0 0 0 0 0 0 0 0 0 0 0 -0 0 0 -0 0
-0 0 0 0 0 0 0 0 0 0 0 0 0 0 0 0 0 0 0 0 0 0 0 0 0 0 0 0 0 0 0 0 0 0 0 0 0 0 0 -0 -0 -0 -0 -0
-0 -0 -0 0 0 0 0 0 0 0 0 0 0 0 0 0 0 0 0 0 0 0 0 -0 0 0 0 0 0 0 0 0 0 0 0 0 0 0 0 0 -0 -0 -0 -0
0 0 0 0 0 0 0 0 0 0 0 0 0 0 0 0 0 0 0 0 -0 0 -0 -0 -0 -0 0 0 0 0 0 0 0 0 0 0 0 0 0 0 0 -0 -0 -0
0 0 0 0 0 0 0 0 0 0 0 0 0 0 0 0 0 0 0 0 0 0 -0 -0 -0 -0 -0 0 0 0 0 0 0 0 0 0 0 0 0 0 0 0 -0 0
0 0 0 0 0 0 0 0 0 0 0 0 0 0 0 0 0 0 0 0 0 0 -0 -0 -0 -0 -0 0 -0 0 0 0 0 0 0 0 0 0 0 0 0 0 0 0
0 0 0 0 0 0 0 0 0 0 0 0 0 0 0 0 0 0 0 0 0 0 0 -0 -0 -0 -0 -0 -0 0 0 0 0 0 0 0 0 0 0 0 0 0 0 0
0 0 0 0 0 0 0 0 0 0 0 0 0 0 0 0 0 0 0 0 0 0 0 -0 -0 -0 -0 -0 -0 -0 0 0 0 0 0 0 0 0 0 0 0 0 0 0
0 0 0 0 0 0 0 0 0 0 0 -0 0 0 0 0 0 0 0 0 0 0 0 0 0 -0 -0 -0 -0 0 0 0 0 0 0 0 0 0 0 0 0 0 0 0
0 0 0 0 0 0 0 0 0 0 -0 -0 0 -0 -0 0 0 0 0 0 0 0 0 0 0 -0 -0 -0 -0 -0 0 0 0 0 0 0 0 0 0 0 0 0 0 0
0 0 0 0 -0 0 0 0 0 0 -0 -0 -0 0 0 0 0 0 0 0 0 0 0 0 0 0 -0 -0 -0 0 -0 0 0 0 0 0 0 0 0 0 0 0 0 0
Wind_Speed_500mb
13 11 7 1 5 3 2 9 13 35 34 24 15 18 21 20 25 30 38 43 46 47 49 50 42 18 10 7 24 32 36 39 41 41 42 47 51 52 58 61 60 51 50 52
4 2 2 11 8 6 5 4 7 16 28 14 17 17 17 21 23 28 33 36 39 40 41 44 49 46 15 2 3 22 30 33 34 37 38 42 43 47 52 61 64 63 60 56
13 5 7 16 25 14 7 6 3 16 25 10 14 11 11 12 20 25 29 32 35 36 38 39 40 43 42 18 7 8 21 25 27 32 36 40 41 44 47 53 58 65 69 67
9 13 16 14 8 2 7 14 8 16 13 10 7 9 8 15 17 22 28 30 31 33 36 36 34 35 40 36 19 10 10 14 21 26 32 34 37 41 44 46 51 59 64 70
9 22 8 14 12 13 24 17 7 11 9 6 12 11 19 11 18 21 24 28 30 31 34 35 35 37 37 39 33 23 9 22 19 27 31 36 41 41 43 43 45 51 56 63
11 12 11 21 15 9 6 13 12 6 6 6 11 10 24 15 27 28 27 27 32 34 33 31 33 36 37 33 34 33 24 14 9 16 24 31 34 39 42 45 46 45 50 56
15 11 4 16 18 13 14 13 15 6 6 8 8 11 30 33 33 32 34 34 34 34 34 33 33 34 37 37 31 35 38 26 9 13 18 16 19 32 41 46 47 50 54 58
11 12 14 27 18 9 16 14 10 6 4 6 10 14 19 25 31 32 34 37 38 39 36 35 35 36 35 38 40 42 40 35 31 22 15 19 22 19 22 38 49 56 60 61
8 4 14 32 8 16 10 10 8 3 1 6 13 18 23 31 33 32 33 36 37 39 42 40 36 36 43 36 40 47 46 39 36 36 35 21 23 20 22 21 26 45 53 57
4 20 20 23 12 13 13 11 6 1 5 11 18 24 31 35 36 37 37 38 37 39 41 46 42 39 42 48 33 46 50 49 43 38 36 38 27 25 23 24 21 24 40 51
13 9 14 25 21 19 18 10 4 2 6 13 21 26 31 34 35 36 36 37 33 33 38 47 47 46 42 44 42 39 44 52 50 48 42 41 42 37 34 32 30 32 34 33
9 13 21 6 29 26 20 14 7 5 9 13 16 26 28 28 31 32 36 35 34 39 42 48 44 43 41 41 41 40 41 38 40 39 45 48 49 54 43 50 40 39 39 55
10 8 13 12 20 22 17 14 11 9 12 15 16 22 24 26 29 33 32 36 40 42 44 42 39 34 32 34 39 38 40 40 41 41 40 40 42 44 52 49 52 42 40 49
16 19 15 20 15 20 18 16 15 14 14 14 18 21 22 26 27 26 31 39 39 38 39 35 36 36 38 43 48 40 41 45 49 49 47 46 44 46 45 50 54 60 53 48
23 27 10 15 22 18 21 19 19 19 15 16 17 19 22 23 25 27 31 28 31 34 35 41 40 42 37 35 38 40 41 46 47 46 47 50 51 51 51 50 49 52 56 54
22 25 27 21 22 24 26 25 23 18 15 14 15 15 16 18 21 19 24 26 25 29 34 36 36 39 38 41 40 42 43 46 51 49 48 49 50 50 53 50 49 49 50 57
11 21 25 27 28 30 30 26 23 17 13 10 11 9 10 13 14 18 23 27 28 28 37 32 40 41 40 37 37 43 43 46 50 54 50 48 48 49 52 50 49 49 49 61
24 18 21 23 22 26 27 27 23 19 16 13 8 4 4 9 16 20 23 25 26 26 30 37 39 47 44 42 42 45 43 46 51 56 48 50 51 45 47 52 61 59 60 61
30 34 34 32 26 27 28 28 26 23 20 14 16 7 8 6 11 15 19 20 20 29 30 36 43 45 48 45 44 46 48 52 53 52 51 55 59 56 48 49 61 64 61 57
28 30 34 36 36 34 34 32 30 28 24 22 21 14 10 8 2 10 17 19 21 23 29 41 44 43 55 47 41 41 42 46 52 56 57 55 58 60 55 57 57 60 57 52
28 26 26 32 39 42 41 38 37 34 31 28 25 20 15 11 8 7 12 19 25 32 31 38 46 46 54 49 47 42 41 41 44 48 53 57 57 54 52 53 54 53 51 44
20 24 26 27 28 31 39 44 43 38 35 32 28 24 21 17 18 20 15 11 19 39 33 34 49 49 49 45 40 35 32 33 33 35 40 46 47 46 47 47 48 46 42 38
24 29 31 30 29 31 29 36 39 41 40 36 30 25 21 19 19 16 10 8 14 28 32 34 47 45 47 43 37 32 25 21 20 21 24 28 30 32 35 35 35 33 31 28
25 24 24 23 21 17 18 32 45 47 41 31 28 22 14 13 11 10 8 12 18 18 25 36 35 48 47 46 48 39 30 22 14 9 5 8 12 15 19 23 24 23 20 18
21 21 18 17 17 20 22 18 32 46 36 29 24 18 10 8 7 5 5 7 17 14 14 23 30 43 45 51 49 50 48 37 28 16 13 13 16 15 19 22 24 25 26 29
25 25 24 22 17 21 19 27 34 33 34 25 19 15 10 7 6 4 3 5 9 14 14 13 17 30 28 48 52 55 47 52 37 35 27 21 23 31 36 40 46 51 50 48
27 31 29 27 30 18 20 24 31 27 29 17 16 14 8 9 3 3 4 7 7 8 10 14 13 16 29 24 44 29 54 43 45 40 37 36 39 43 44 50 56 56 56 53
Wind_Direction_500mb
64 62 61 107 164 84 265 348 276 129 130 114 93 77 58 53 54 44 37 33 28 26 25 26 31 38 78 291 243 234 229 227 231 234 234 233 236 236 239 241 247 245 244 241
133 24 299 246 218 175 167 143 97 122 112 113 116 83 51 44 38 37 32 25 23 22 18 21 14 21 21 47 252 246 240 240 237 233 235 234 235 238 238 241 242 244 243 243
194 207 242 240 219 209 151 123 304 194 91 127 95 67 45 59 44 31 21 15 10 11 11 10 12 7 15 10 324 253 252 249 246 243 238 238 238 236 235 236 237 240 242 244
140 186 220 76 84 141 197 96 120 112 97 79 31 8 99 97 51 20 6 359 356 355 356 358 2 2 0 16 16 297 256 253 249 248 245 243 241 237 240 237 236 237 240 242
202 210 73 176 187 189 185 150 147 135 121 43 353 314 150 105 20 359 346 341 337 336 336 342 344 348 352 360 7 19 319 264 266 263 260 257 253 250 242 241 238 237 239 240
198 226 232 85 132 147 184 172 131 138 100 23 339 257 103 345 335 330 326 326 324 323 325 325 332 332 335 344 351 355 6 29 349 290 270 265 256 257 257 250 249 244 242 242
210 237 126 120 142 152 214 93 121 85 20 348 331 331 313 323 321 316 313 314 312 316 310 313 315 316 318 321 327 328 327 338 15 6 351 328 291 268 254 251 250 251 253 245
221 225 220 154 151 230 99 122 111 93 38 355 334 326 327 330 329 324 317 312 309 306 303 304 305 303 301 304 306 307 313 311 310 307 298 308 314 302 298 262 255 255 251 252
227 58 116 168 81 136 146 138 131 121 344 312 310 313 320 325 330 328 324 316 309 302 298 300 300 296 290 288 294 295 298 303 297 297 300 301 299 299 304 300 292 265 261 257
263 172 163 166 162 163 158 142 139 92 342 327 321 324 322 325 325 326 325 322 313 303 296 295 294 290 287 283 283 287 286 291 296 292 286 294 292 288 286 292 296 296 270 259
246 211 199 209 204 185 177 173 172 333 331 333 326 319 314 313 316 320 324 331 321 309 301 298 293 286 282 282 276 272 280 280 285 291 288 280 285 284 277 266 273 287 288 280
216 206 210 153 195 183 183 197 214 283 307 310 308 311 311 308 311 316 322 314 323 317 312 311 305 285 277 276 273 264 267 274 285 282 289 289 286 280 278 277 262 270 282 288
260 197 177 158 160 182 193 200 217 244 285 293 305 311 309 308 314 309 309 317 316 311 311 308 299 286 274 275 262 260 264 267 271 278 283 285 290 287 288 283 269 264 278 287
207 183 174 176 187 193 196 206 225 251 266 275 305 316 315 312 314 310 312 316 315 312 316 312 307 295 275 264 256 265 270 270 271 272 274 275 278 280 281 283 286 275 277 288
217 207 229 211 210 199 207 221 238 245 260 275 300 310 319 323 314 312 312 315 317 322 317 309 301 293 293 281 271 266 269 268 268 267 266 267 270 274 282 283 284 284 288 282
220 216 216 215 215 222 225 226 233 246 253 268 299 305 319 326 319 317 321 331 331 327 324 321 322 315 297 284 281 278 272 272 270 266 266 265 265 267 269 270 274 275 278 284
205 207 213 220 224 225 221 225 227 239 241 269 283 291 301 315 334 340 340 341 332 320 326 316 321 320 303 295 280 278 273 268 266 263 263 262 259 258 263 270 269 270 274 280
235 244 229 233 236 223 222 221 224 227 233 232 221 212 293 336 334 335 328 329 330 324 327 329 326 321 312 297 279 272 273 266 261 262 262 259 259 256 257 261 267 271 277 280
231 240 241 235 236 230 225 224 227 225 218 210 191 220 247 330 359 0 355 347 339 338 342 335 327 329 322 310 294 285 278 270 262 261 262 259 259 257 255 254 263 271 276 276
249 247 247 237 233 230 229 229 224 219 213 204 203 225 248 244 306 354 3 353 347 337 341 336 334 330 329 319 307 291 284 276 265 261 259 259 260 261 256 255 259 265 271 272
264 269 263 254 245 240 233 227 220 212 207 202 208 220 228 234 241 302 338 349 352 352 338 338 340 340 334 327 318 307 294 288 277 266 259 256 258 257 255 255 256 260 266 263
281 284 276 269 259 257 248 233 219 210 203 203 210 221 233 246 259 270 275 320 350 353 356 352 350 347 345 338 339 327 309 296 287 276 265 258 255 252 250 250 251 251 252 252
310 305 295 281 271 257 254 234 224 216 202 201 207 219 235 257 270 275 305 314 332 350 7 356 2 3 4 5 1 355 339 322 310 290 277 265 255 249 245 240 238 236 237 240
311 309 302 299 281 261 270 245 225 211 216 199 204 215 231 262 280 263 318 302 327 337 349 2 5 16 17 19 23 22 16 10 19 34 31 253 229 214 215 212 208 206 204 200
317 311 314 309 300 279 255 253 233 213 202 194 199 208 227 250 273 308 310 331 333 338 343 344 11 27 27 25 23 22 26 33 34 39 78 114 141 165 175 169 157 152 148 145
321 311 305 294 282 297 253 226 185 191 184 191 188 196 199 198 215 311 247 301 308 326 350 356 354 17 13 26 25 23 21 23 37 46 51 77 104 121 124 126 125 123 123 123
344 327 312 304 279 248 190 170 167 181 177 169 197 176 163 170 180 106 25 353 345 340 341 330 323 340 20 12 19 3 18 24 27 47 59 70 82 91 102 106 106 106 106 109
Wind_Speed_850mb
13 11 7 1 5 3 2 9 13 35 34 24 15 18 21 20 25 30 38 43 46 47 49 50 42 18 10 7 24 32 36 39 41 41 42 47 51 52 58 61 60 51 50 52
4 2 2 11 8 6 5 4 7 16 28 14 17 17 17 21 23 28 33 36 39 40 41 44 49 46 15 2 3 22 30 33 34 37 38 42 43 47 52 61 64 63 60 56
13 5 7 16 25 14 7 6 3 16 25 10 14 11 11 12 20 25 29 32 35 36 38 39 40 43 42 18 7 8 21 25 27 32 36 40 41 44 47 53 58 65 69 67
9 13 16 14 8 2 7 14 8 16 13 10 7 9 8 15 17 22 28 30 31 33 36 36 34 35 40 36 19 10 10 14 21 26 32 34 37 41 44 46 51 59 64 70
9 22 8 14 12 13 24 17 7 11 9 6 12 11 19 11 18 21 24 28 30 31 34 35 35 37 37 39 33 23 9 22 19 27 31 36 41 41 43 43 45 51 56 63
11 12 11 21 15 9 6 13 12 6 6 6 11 10 24 15 27 28 27 27 32 34 33 31 33 36 37 33 34 33 24 14 9 16 24 31 34 39 42 45 46 45 50 56
15 11 4 16 18 13 14 13 15 6 6 8 8 11 30 33 33 32 34 34 34 34 34 33 33 34 37 37 31 35 38 26 9 13 18 16 19 32 41 46 47 50 54 58
11 12 14 27 18 9 16 14 10 6 4 6 10 14 19 25 31 32 34 37 38 39 36 35 35 36 35 38 40 42 40 35 31 22 15 19 22 19 22 38 49 56 60 61
8 4 14 32 8 16 10 10 8 3 1 6 13 18 23 31 33 32 33 36 37 39 42 40 36 36 43 36 40 47 46 39 36 36 35 21 23 20 22 21 26 45 53 57
4 20 20 23 12 13 13 11 6 1 5 11 18 24 31 35 36 37 37 38 37 39 41 46 42 39 42 48 33 46 50 49 43 38 36 38 27 25 23 24 21 24 40 51
13 9 14 25 21 19 18 10 4 2 6 13 21 26 31 34 35 36 36 37 33 33 38 47 47 46 42 44 42 39 44 52 50 48 42 41 42 37 34 32 30 32 34 33
9 13 21 6 29 26 20 14 7 5 9 13 16 26 28 28 31 32 36 35 34 39 42 48 44 43 41 41 41 40 41 38 40 39 45 48 49 54 43 50 40 39 39 55
10 8 13 12 20 22 17 14 11 9 12 15 16 22 24 26 29 33 32 36 40 42 44 42 39 34 32 34 39 38 40 40 41 41 40 40 42 44 52 49 52 42 40 49
16 19 15 20 15 20 18 16 15 14 14 14 18 21 22 26 27 26 31 39 39 38 39 35 36 36 38 43 48 40 41 45 49 49 47 46 44 46 45 50 54 60 53 48
23 27 10 15 22 18 21 19 19 19 15 16 17 19 22 23 25 27 31 28 31 34 35 41 40 42 37 35 38 40 41 46 47 46 47 50 51 51 51 50 49 52 56 54
22 25 27 21 22 24 26 25 23 18 15 14 15 15 16 18 21 19 24 26 25 29 34 36 36 39 38 41 40 42 43 46 51 49 48 49 50 50 53 50 49 49 50 57
11 21 25 27 28 30 30 26 23 17 13 10 11 9 10 13 14 18 23 27 28 28 37 32 40 41 40 37 37 43 43 46 50 54 50 48 48 49 52 50 49 49 49 61
24 18 21 23 22 26 27 27 23 19 16 13 8 4 4 9 16 20 23 25 26 26 30 37 39 47 44 42 42 45 43 46 51 56 48 50 51 45 47 52 61 59 60 61
30 34 34 32 26 27 28 28 26 23 20 14 16 7 8 6 11 15 19 20 20 29 30 36 43 45 48 45 44 46 48 52 53 52 51 55 59 56 48 49 61 64 61 57
28 30 34 36 36 34 34 32 30 28 24 22 21 14 10 8 2 10 17 19 21 23 29 41 44 43 55 47 41 41 42 46 52 56 57 55 58 60 55 57 57 60 57 52
28 26 26 32 39 42 41 38 37 34 31 28 25 20 15 11 8 7 12 19 25 32 31 38 46 46 54 49 47 42 41 41 44 48 53 57 57 54 52 53 54 53 51 44
20 24 26 27 28 31 39 44 43 38 35 32 28 24 21 17 18 20 15 11 19 39 33 34 49 49 49 45 40 35 32 33 33 35 40 46 47 46 47 47 48 46 42 38
24 29 31 30 29 31 29 36 39 41 40 36 30 25 21 19 19 16 10 8 14 28 32 34 47 45 47 43 37 32 25 21 20 21 24 28 30 32 35 35 35 33 31 28
25 24 24 23 21 17 18 32 45 47 41 31 28 22 14 13 11 10 8 12 18 18 25 36 35 48 47 46 48 39 30 22 14 9 5 8 12 15 19 23 24 23 20 18
21 21 18 17 17 20 22 18 32 46 36 29 24 18 10 8 7 5 5 7 17 14 14 23 30 43 45 51 49 50 48 37 28 16 13 13 16 15 19 22 24 25 26 29
25 25 24 22 17 21 19 27 34 33 34 25 19 15 10 7 6 4 3 5 9 14 14 13 17 30 28 48 52 55 47 52 37 35 27 21 23 31 36 40 46 51 50 48
27 31 29 27 30 18 20 24 31 27 29 17 16 14 8 9 3 3 4 7 7 8 10 14 13 16 29 24 44 29 54 43 45 40 37 36 39 43 44 50 56 56 56 53
Wind_Direction_850mb
64 62 61 107 164 84 265 348 276 129 130 114 93 77 58 53 54 44 37 33 28 26 25 26 31 38 78 291 243 234 229 227 231 234 234 233 236 236 239 241 247 245 244 241
133 24 299 246 218 175 167 143 97 122 112 113 116 83 51 44 38 37 32 25 23 22 18 21 14 21 21 47 252 246 240 240 237 233 235 234 235 238 238 241 242 244 243 243
194 207 242 240 219 209 151 123 304 194 91 127 95 67 45 59 44 31 21 15 10 11 11 10 12 7 15 10 324 253 252 249 246 243 238 238 238 236 235 236 237 240 242 244
140 186 220 76 84 141 197 96 120 112 97 79 31 8 99 97 51 20 6 359 356 355 356 358 2 2 0 16 16 297 256 253 249 248 245 243 241 237 240 237 236 237 240 242
202 210 73 176 187 189 185 150 147 135 121 43 353 314 150 105 20 359 346 341 337 336 336 342 344 348 352 360 7 19 319 264 266 263 260 257 253 250 242 241 238 237 239 240
198 226 232 85 132 147 184 172 131 138 100 23 339 257 103 345 335 330 326 326 324 323 325 325 332 332 335 344 351 355 6 29 349 290 270 265 256 257 257 250 249 244 242 242
210 237 126 120 142 152 214 93 121 85 20 348 331 331 313 323 321 316 313 314 312 316 310 313 315 316 318 321 327 328 327 338 15 6 351 328 291 268 254 251 250 251 253 245
221 225 220 154 151 230 99 122 111 93 38 355 334 326 327 330 329 324 317 312 309 306 303 304 305 303 301 304 306 307 313 311 310 307 298 308 314 302 298 262 255 255 251 252
227 58 116 168 81 136 146 138 131 121 344 312 310 313 320 325 330 328 324 316 309 302 298 300 300 296 290 288 294 295 298 303 297 297 300 301 299 299 304 300 292 265 261 257
263 172 163 166 162 163 158 142 139 92 342 327 321 324 322 325 325 326 325 322 313 303 296 295 294 290 287 283 283 287 286 291 296 292 286 294 292 288 286 292 296 296 270 259
246 211 199 209 204 185 177 173 172 333 331 333 326 319 314 313 316 320 324 331 321 309 301 298 293 286 282 282 276 272 280 280 285 291 288 280 285 284 277 266 273 287 288 280
216 206 210 153 195 183 183 197 214 283 307 310 308 311 311 308 311 316 322 314 323 317 312 311 305 285 277 276 273 264 267 274 285 282 289 289 286 280 278 277 262 270 282 288
260 197 177 158 160 182 193 200 217 244 285 293 305 311 309 308 314 309 309 317 316 311 311 308 299 286 274 275 262 260 264 267 271 278 283 285 290 287 288 283 269 264 278 287
207 183 174 176 187 193 196 206 225 251 266 275 305 316 315 312 314 310 312 316 315 312 316 312 307 295 275 264 256 265 270 270 271 272 274 275 278 280 281 283 286 275 277 288
217 207 229 211 210 199 207 221 238 245 260 275 300 310 319 323 314 312 312 315 317 322 317 309 301 293 293 281 271 266 269 268 268 267 266 267 270 274 282 283 284 284 288 282
220 216 216 215 215 222 225 226 233 246 253 268 299 305 319 326 319 317 321 331 331 327 324 321 322 315 297 284 281 278 272 272 270 266 266 265 265 267 269 270 274 275 278 284
205 207 213 220 224 225 221 225 227 239 241 269 283 291 301 315 334 340 340 341 332 320 326 316 321 320 303 295 280 278 273 268 266 263 263 262 259 258 263 270 269 270 274 280
235 244 229 233 236 223 222 221 224 227 233 232 221 212 293 336 334 335 328 329 330 324 327 329 326 321 312 297 279 272 273 266 261 262 262 259 259 256 257 261 267 271 277 280
231 240 241 235 236 230 225 224 227 225 218 210 191 220 247 330 359 0 355 347 339 338 342 335 327 329 322 310 294 285 278 270 262 261 262 259 259 257 255 254 263 271 276 276
249 247 247 237 233 230 229 229 224 219 213 204 203 225 248 244 306 354 3 353 347 337 341 336 334 330 329 319 307 291 284 276 265 261 259 259 260 261 256 255 259 265 271 272
264 269 263 254 245 240 233 227 220 212 207 202 208 220 228 234 241 302 338 349 352 352 338 338 340 340 334 327 318 307 294 288 277 266 259 256 258 257 255 255 256 260 266 263
281 284 276 269 259 257 248 233 219 210 203 203 210 221 233 246 259 270 275 320 350 353 356 352 350 347 345 338 339 327 309 296 287 276 265 258 255 252 250 250 251 251 252 252
310 305 295 281 271 257 254 234 224 216 202 201 207 219 235 257 270 275 305 314 332 350 7 356 2 3 4 5 1 355 339 322 310 290 277 265 255 249 245 240 238 236 237 240
311 309 302 299 281 261 270 245 225 211 216 199 204 215 231 262 280 263 318 302 327 337 349 2 5 16 17 19 23 22 16 10 19 34 31 253 229 214 215 212 208 206 204 200
317 311 314 309 300 279 255 253 233 213 202 194 199 208 227 250 273 308 310 331 333 338 343 344 11 27 27 25 23 22 26 33 34 39 78 114 141 165 175 169 157 152 148 145
321 311 305 294 282 297 253 226 185 191 184 191 188 196 199 198 215 311 247 301 308 326 350 356 354 17 13 26 25 23 21 23 37 46 51 77 104 121 124 126 125 123 123 123
344 327 312 304 279 248 190 170 167 181 177 169 197 176 163 170 180 106 25 353 345 340 341 330 323 340 20 12 19 3 18 24 27 47 59 70 82 91 102 106 106 106 106 109